Flag for Canada Weather past 2 weeks in Steinbach, Manitoba, Canada

Now
49 °F

Cool.


Feels Like: 47 °F
Forecast: 40 / 55 °F
Wind: 5 mph from West

Location: Winnipeg The Forks

Current Time: Oct 25, 2014 at 1:41:20 AM

Latest Report: Oct 25, 2014 at 1:00 AM


Visibility: N/A

Pressure: 29.85 "Hg

Humidity: 51%

Dew point: 32 °F

Location of SteinbachLocation

Historic Weather in Steinbach — Graph

°F

Steinbach temperature yesterday

Maximum temperature yesterday: 68 °F (at 3:00 PM)
Minimum temperature yesterday: 49 °F (at 5:00 AM)
Average temperature yesterday: 56 °F

Past Weeks' High & Low Weather Summary

 TemperatureHumidityPressure
High68 °F (Oct 15, 3:00 PM)89% (Oct 22, 8:00 PM)30.30 "Hg (Oct 22, 8:00 PM)
Low33 °F (Oct 10, 4:00 AM)28% (Oct 24, 4:00 PM)29.47 "Hg (Oct 16, 12:00 PM)
Average50 °F64%29.87 "Hg
* Reported Midnight between Oct 9 and Oct 10 — Midnight between Oct 24 and Oct 25, Steinbach, Weather by CustomWeather, © 2014

Note: Actual official high and low records may vary slightly from our data, if they occured in-between our weather recording intervals... More about our weather records

Advertising

Steinbach weather history for previous 24 hours

 ConditionsComfort  
Time TempWeatherWind HumidityBarometerVisibility
12:00 AM
Oct 25
49 °FCool.5 mph55%29.82 "HgN/A
11:00 PM
Oct 24
52 °FCool.5 mph49%29.79 "HgN/A
10:00 PM55 °FRefreshingly cool.7 mph41%29.76 "HgN/A
9:00 PM57 °FRefreshingly cool.9 mph38%29.74 "HgN/A
8:00 PM59 °FRefreshingly cool.6 mph36%29.71 "HgN/A
7:00 PM60 °FRefreshingly cool.6 mph34%29.70 "HgN/A
6:00 PM62 °FRefreshingly cool.8 mph37%29.68 "HgN/A
5:00 PM65 °FMild.9 mph33%29.65 "HgN/A
4:00 PM68 °FMild.8 mph28%29.61 "HgN/A
3:00 PM68 °FMild.7 mph36%29.59 "HgN/A
2:00 PM66 °FMild.7 mph41%29.60 "HgN/A
1:00 PM62 °FRefreshingly cool.7 mph53%29.62 "HgN/A
12:00 PM57 °FRefreshingly cool.8 mph56%29.64 "HgN/A
11:00 AM53 °FCool.6 mph61%29.66 "HgN/A
10:00 AM51 °FCool.6 mph61%29.66 "HgN/A
9:00 AM49 °FCool.5 mph65%29.66 "HgN/A
8:00 AM49 °FCool.6 mph64%29.65 "HgN/A
7:00 AM49 °FCool.6 mph57%29.66 "HgN/A
6:00 AM50 °FCool.7 mph57%29.67 "HgN/A
5:00 AM49 °FCool.3 mph65%29.67 "HgN/A
4:00 AM50 °FCool.5 mph63%29.67 "HgN/A
3:00 AM51 °FCool.3 mph61%29.68 "HgN/A
2:00 AM55 °FCool.7 mph52%29.68 "HgN/A
1:00 AM56 °FRefreshingly cool.5 mph50%29.68 "HgN/A
Weather by CustomWeather, © 2014

See weather overviewHow to use our weather pages